Location: Vancouver
(49.2500°N, 123.1330°W)
Time: 08:53:16
(UTC-07:00)

Cosmos 676 Rocket - Visible Passes

Search period start: 20 April 2014 00:00
Search period end: 30 April 2014 00:00
Orbit: 756 x 786 km, 74.0° (Epoch: 19 April)

Date Brightness Start Highest point End Pass type
(mag) Time Alt. Az. Time Alt. Az. Time Alt. Az.
20 Apr 4.9 00:52:12 40° WNW 00:52:45 41° WNW 00:57:43 10° NNE visible
20 Apr 5.5 22:35:49 20° E 22:35:49 20° E 22:38:36 10° NE visible
21 Apr 4.2 00:16:06 61° W 00:16:26 63° WNW 00:21:39 10° NNE visible
21 Apr 6.5 01:57:03 10° WNW 01:59:42 14° NW 02:02:22 10° N visible
21 Apr 5.9 21:59:39 13° E 21:59:39 13° E 22:01:12 10° ENE visible
21 Apr 3.8 23:39:55 79° S 23:40:12 84° ESE 23:45:28 10° NNE visible
22 Apr 6.2 01:20:12 13° W 01:23:03 19° NW 01:26:48 10° N visible
22 Apr 4.0 23:03:40 52° SE 23:04:05 54° ESE 23:09:10 10° NNE visible
23 Apr 5.7 00:43:56 19° W 00:46:31 27° NW 00:50:59 10° N visible
23 Apr 4.6 22:27:18 32° ESE 22:28:02 34° ESE 22:32:43 10° NE visible
24 Apr 5.1 00:07:33 24° WSW 00:10:05 40° WNW 00:15:02 10° NNE visible
24 Apr 5.2 21:50:47 20° ESE 21:52:06 22° E 21:56:00 10° NE visible
24 Apr 4.4 23:31:02 27° SW 23:33:45 61° WNW 23:38:58 10° NNE visible
25 Apr 6.7 01:14:30 10° WNW 01:17:03 14° NW 01:19:37 10° N visible
25 Apr 5.7 21:14:05 11° ESE 21:16:15 13° E 21:18:41 10° ENE visible
25 Apr 3.9 22:54:19 24° SSW 22:57:31 87° ESE 23:02:47 10° NNE visible
26 Apr 6.4 00:36:45 10° W 00:40:24 19° NW 00:44:05 10° N visible
26 Apr 4.1 22:17:20 16° S 22:21:22 56° ESE 22:26:30 10° NNE visible
26 Apr 5.9 23:59:29 10° WSW 00:03:51 27° NW 00:08:17 10° N visible
27 Apr 4.6 21:40:39 10° SSE 21:45:19 35° ESE 21:50:03 10° NE visible
27 Apr 5.3 23:22:33 10° SW 23:27:24 39° WNW 23:32:20 10° NNE visible
28 Apr 5.2 21:05:25 10° SSE 21:09:22 23° E 21:13:22 10° NE visible
28 Apr 4.6 22:45:56 10° SW 22:51:03 59° WNW 22:56:16 10° NNE visible
29 Apr 6.8 00:31:57 10° WNW 00:34:24 13° NW 00:36:52 10° NNW visible
29 Apr 4.0 22:09:36 10° SSW 22:14:49 90° WNW 22:20:06 10° NNE visible
29 Apr 6.6 23:54:08 10° W 23:57:44 18° NW 00:00:00 15° NNW visible
